This is the latest recevied weather packets stored in our database for station/object OK2BOZ-1. If no packets are shown the sender has not sent any weather packets the latest 10 day(s).
| Time | Temp. | Humidity | Pressure | Rain* | Wind** | Luminosity | Snow |
|---|---|---|---|---|---|---|---|
| 1777523593 | 6.11° C | 52% | 1029.9 hPa | - | - | - | - |
| 1777523279 | 5° C | 53% | 1029.9 hPa | - | - | - | - |
| 1777522965 | 3.89° C | 57% | 1029.8 hPa | - | - | - | - |
| 1777522337 | 2.22° C | 63% | 1029.7 hPa | - | - | - | - |
| 1777522024 | 1.11° C | 66% | 1029.7 hPa | - | - | - | - |
| 1777456395 | 17.22° C | 32% | 1023.9 hPa | - | - | - | - |
| 1777456080 | 16.11° C | 33% | 1023.9 hPa | - | - | - | - |
| 1777455765 | 15.56° C | 34% | 1023.9 hPa | - | - | - | - |
| 1777455450 | 16.67° C | 32% | 1023.8 hPa | - | - | - | - |
| 1777455135 | 16.11° C | 33% | 1023.8 hPa | - | - | - | - |
| 1777454820 | 16.11° C | 33% | 1023.9 hPa | - | - | - | - |
| 1777454506 | 17.22° C | 32% | 1023.9 hPa | - | - | - | - |
| 1777454192 | 16.67° C | 31% | 1024 hPa | - | - | - | - |
| 1777453876 | 16.11° C | 33% | 1024.1 hPa | - | - | - | - |
| 1777453562 | 15° C | 33% | 1024.1 hPa | - | - | - | - |
| 1777453247 | 15° C | 34% | 1024.1 hPa | - | - | - | - |
| 1777452933 | 15.56° C | 33% | 1024.1 hPa | - | - | - | - |
| 1777452618 | 15.56° C | 34% | 1024.1 hPa | - | - | - | - |
| 1777452303 | 15° C | 34% | 1024.1 hPa | - | - | - | - |
| 1777451988 | 15.56° C | 33% | 1024.1 hPa | - | - | - | - |
| 1777451674 | 15.56° C | 33% | 1024.1 hPa | - | - | - | - |
| 1777451359 | 15.56° C | 33% | 1024.1 hPa | - | - | - | - |
| 1777451045 | 15° C | 33% | 1024.1 hPa | - | - | - | - |
| 1777450730 | 15° C | 33% | 1024.2 hPa | - | - | - | - |
| 1777450414 | 15° C | 34% | 1024.1 hPa | - | - | - | - |
* Rain since midnight (hover to see other rain measurements)
** Current wind speed in m/s (hover to see current wind gust speed)